Date String (YYYY-MM-DD hh:mm:ss) UTC,Instrument flags,Ambient pressure (hPa),Sample flow (lpm),Bypass flow (lpm),Sample temperature (°C),Ambient temperature (°C),ASC tube jacket temperature (°C),LED temperature (°C),Box temperature (°C),Sample RH (%),Span deviation,Mass concentration (μg/m³),Mass concentration (μg/m³),Mass concentration (μg/m³)
DateTimeUTC,F1_M11,P_M11,Q1_M11,Q2_M11,T1_M11,T2_M11,T3_M11,T4_M11,T5_M11,U1_M11,ZSPAN_M11,X0_M11,X2_M11,X1_M11
2022-05-07 11:00:00,,0818.0,5.01,0.00,29.4,28.3,00.0,38.5,31.1,10.0,0000.0,0009.92,0003.57,0002.00
2022-05-07 11:01:00,,0818.0,5.00,0.00,29.4,28.4,00.0,38.5,31.2,10.1,0000.0,0009.63,0003.57,0002.01
2022-05-07 11:02:00,,0818.0,5.00,0.00,29.4,28.4,00.0,38.5,31.2,10.1,0000.0,0009.35,0003.59,0002.02
2022-05-07 11:03:00,,0817.9,5.01,0.00,29.4,28.4,00.0,38.5,31.2,10.1,0000.0,0008.77,0003.60,0002.01
2022-05-07 11:04:00,,0817.9,5.00,0.00,29.4,28.5,00.0,38.5,31.2,10.1,0000.0,0008.70,0003.56,0001.98
2022-05-07 11:05:00,,0817.9,4.99,0.00,29.4,28.5,00.0,38.5,31.2,10.1,0000.0,0009.00,0003.55,0001.98
2022-05-07 11:06:00,,0817.9,5.01,0.00,29.4,28.5,00.0,38.5,31.2,10.0,0000.0,0008.92,0003.48,0001.97
2022-05-07 11:07:00,,0817.9,5.00,0.00,29.4,28.5,00.0,38.5,31.2,10.0,0000.0,0008.83,0003.46,0001.96
2022-05-07 11:08:00,,0817.9,5.00,0.00,29.4,28.5,00.0,38.5,31.2,10.1,0000.0,0008.59,0003.45,0001.95
2022-05-07 11:09:00,,0817.9,4.99,0.00,29.5,28.6,00.0,38.4,31.2,10.2,0000.0,0008.60,0003.46,0001.94
2022-05-07 11:10:00,,0817.9,4.99,0.00,29.5,28.6,00.0,38.4,31.2,10.2,0000.0,0008.81,0003.56,0001.96
2022-05-07 11:11:00,,0817.9,5.00,0.00,29.5,28.6,00.0,38.5,31.2,10.2,0000.0,0008.85,0003.60,0001.96
2022-05-07 11:12:00,,0818.0,5.00,0.00,29.5,28.6,00.0,38.5,31.2,10.5,0000.0,0008.60,0003.60,0001.97
2022-05-07 11:13:00,,0817.9,5.01,0.00,29.5,28.6,00.0,38.5,31.2,10.9,0000.0,0008.51,0003.58,0001.97
2022-05-07 11:14:00,,0817.9,5.00,0.00,29.5,28.6,00.0,38.5,31.2,10.9,0000.0,0008.44,0003.56,0001.97
2022-05-07 11:15:00,,0817.8,5.01,0.00,29.5,28.6,00.0,38.5,31.2,10.5,0000.0,0008.77,0003.64,0002.00
2022-05-07 11:16:00,,0817.8,4.99,0.00,29.4,28.5,00.0,38.5,31.2,10.3,0000.0,0008.49,0003.68,0002.00
2022-05-07 11:17:00,,0817.7,4.99,0.00,29.5,28.5,00.0,38.5,31.2,10.1,0000.0,0008.68,0003.75,0002.02
2022-05-07 11:18:00,,0817.7,5.01,0.00,29.5,28.5,00.0,38.5,31.2,10.1,0000.0,0008.51,0003.71,0002.01
2022-05-07 11:19:00,,0817.8,5.00,0.00,29.4,28.5,00.0,38.5,31.2,10.0,0000.0,0008.40,0003.69,0002.00
2022-05-07 11:20:00,,0817.9,5.00,0.00,29.4,28.4,00.0,38.4,31.1,10.0,0000.0,0008.47,0003.71,0002.01
2022-05-07 11:21:00,,0817.9,5.00,0.00,29.4,28.4,00.0,38.4,31.1,10.1,0000.0,0008.48,0003.68,0002.00
2022-05-07 11:22:00,,0817.8,5.01,0.00,29.4,28.4,00.0,38.4,31.1,09.9,0000.0,0008.78,0003.70,0002.00
2022-05-07 11:23:00,,0817.8,5.00,0.00,29.4,28.4,00.0,38.4,31.2,09.9,0000.0,0008.80,0003.71,0002.01
2022-05-07 11:24:00,,0817.7,4.99,0.00,29.4,28.4,00.0,38.4,31.1,10.0,0000.0,0009.24,0003.72,0002.01
2022-05-07 11:25:00,,0817.7,5.00,0.00,29.4,28.4,00.0,38.4,31.2,10.0,0000.0,0009.60,0003.75,0002.02
2022-05-07 11:26:00,,0817.8,5.00,0.00,29.4,28.4,00.0,38.4,31.2,10.1,0000.0,0009.30,0003.68,0002.02
2022-05-07 11:27:00,,0817.9,4.99,0.00,29.4,28.4,00.0,38.4,31.2,10.2,0000.0,0009.12,0003.65,0002.02
2022-05-07 11:28:00,,0817.8,5.00,0.00,29.4,28.4,00.0,38.4,31.1,10.3,0000.0,0009.18,0003.62,0002.02
2022-05-07 11:29:00,,0817.8,5.00,0.00,29.4,28.4,00.0,38.4,31.2,10.2,0000.0,0009.47,0003.69,0002.04
2022-05-07 11:30:00,,0817.8,5.00,0.00,29.4,28.4,00.0,38.4,31.1,10.1,0000.0,0009.58,0003.70,0002.05
2022-05-07 11:31:00,,0817.8,5.01,0.00,29.4,28.4,00.0,38.4,31.1,10.1,0000.0,0010.04,0003.68,0002.07
2022-05-07 11:32:00,,0817.8,5.01,0.00,29.4,28.4,00.0,38.4,31.1,10.1,0000.0,0009.84,0003.64,0002.07
2022-05-07 11:33:00,,0817.8,4.99,0.00,29.4,28.4,00.0,38.4,31.1,10.0,0000.0,0010.08,0003.58,0002.07
2022-05-07 11:34:00,,0817.8,5.00,0.00,29.4,28.4,00.0,38.4,31.1,09.9,0000.0,0010.27,0003.61,0002.08
2022-05-07 11:35:00,,0817.9,5.00,0.00,29.4,28.4,00.0,38.4,31.1,09.9,0000.0,0009.91,0003.62,0002.08
2022-05-07 11:36:00,,0817.9,4.99,0.00,29.4,28.4,00.0,38.4,31.1,10.1,0000.0,0009.71,0003.66,0002.10
2022-05-07 11:37:00,,0817.9,5.00,0.00,29.4,28.4,00.0,38.4,31.1,10.2,0000.0,0009.85,0003.71,0002.10
2022-05-07 11:38:00,,0817.9,5.00,0.00,29.4,28.4,00.0,38.4,31.1,10.1,0000.0,0009.87,0003.70,0002.11
2022-05-07 11:39:00,,0817.8,5.00,0.00,29.4,28.4,00.0,38.4,31.1,10.3,0000.0,0009.79,0003.72,0002.10
2022-05-07 11:40:00,,0817.9,5.00,0.00,29.4,28.4,00.0,38.4,31.1,10.7,0000.0,0009.69,0003.69,0002.09
2022-05-07 11:41:00,,0817.8,5.00,0.00,29.4,28.4,00.0,38.4,31.1,10.7,0000.0,0009.83,0003.71,0002.11
2022-05-07 11:42:00,,0817.7,4.99,0.00,29.4,28.4,00.0,38.4,31.1,10.4,0000.0,0009.69,0003.71,0002.10
2022-05-07 11:43:00,,0817.8,5.00,0.00,29.4,28.4,00.0,38.4,31.2,10.1,0000.0,0010.27,0003.75,0002.11
2022-05-07 11:44:00,,0817.7,5.01,0.00,29.4,28.4,00.0,38.4,31.1,10.0,0000.0,0010.10,0003.83,0002.14
2022-05-07 11:45:00,,0817.7,5.01,0.00,29.4,28.4,00.0,38.4,31.1,10.0,0000.0,0009.91,0003.85,0002.15
2022-05-07 11:46:00,,0817.8,5.00,0.00,29.4,28.4,00.0,38.4,31.1,10.4,0000.0,0009.68,0003.79,0002.14
2022-05-07 11:47:00,,0817.8,5.00,0.00,29.4,28.4,00.0,38.4,31.1,10.4,0000.0,0009.63,0003.74,0002.13
2022-05-07 11:48:00,,0817.9,5.00,0.00,29.4,28.3,00.0,38.4,31.0,10.2,0000.0,0009.39,0003.67,0002.12
2022-05-07 11:49:00,,0817.9,4.99,0.00,29.4,28.3,00.0,38.4,31.1,10.0,0000.0,0009.43,0003.67,0002.10
2022-05-07 11:50:00,,0817.8,4.99,0.00,29.4,28.3,00.0,38.4,31.1,10.0,0000.0,0009.68,0003.70,0002.10
2022-05-07 11:51:00,,0817.7,5.00,0.00,29.3,28.3,00.0,38.4,31.1,10.0,0000.0,0009.68,0003.71,0002.11
2022-05-07 11:52:00,,0817.7,5.01,0.00,29.3,28.3,00.0,38.4,31.1,09.9,0000.0,0009.57,0003.68,0002.10
2022-05-07 11:53:00,,0817.7,5.01,0.00,29.3,28.3,00.0,38.4,31.0,10.0,0000.0,0009.32,0003.66,0002.08
2022-05-07 11:54:00,,0817.7,5.01,0.00,29.3,28.4,00.0,38.4,31.1,10.0,0000.0,0008.91,0003.70,0002.07
2022-05-07 11:55:00,,0817.8,5.00,0.00,29.3,28.4,00.0,38.4,31.1,09.9,0000.0,0008.84,0003.69,0002.05
2022-05-07 11:56:00,,0817.8,4.98,0.00,29.3,28.4,00.0,38.3,31.1,09.9,0000.0,0008.83,0003.71,0002.02
2022-05-07 11:57:00,,0817.8,5.01,0.00,29.3,28.4,00.0,38.3,31.0,09.9,0000.0,0009.15,0003.76,0002.01
2022-05-07 11:58:00,,0817.9,5.00,0.00,29.3,28.4,00.0,38.3,31.1,09.9,0000.0,0009.28,0003.77,0002.00
2022-05-07 11:59:00,,0817.9,5.01,0.00,29.4,28.4,00.0,38.3,31.1,09.7,0000.0,0009.44,0003.83,0001.99
